Location: Newark
(51.0500°N, 12.4500°E)
Time: 11:30:22
(UTC+00:00)

Tiros 1 - Pass Details

Date: 20 February 2020
Orbit: 630 x 664 km, 48.4° (Epoch: 06 April)

Event Time Altitude Azimuth Distance (km) Brightness Sun altitude
Rises 05:12:44 0° 267° (W) 2,918 - -10.4°
Reaches altitude 10° 05:15:04 10° 264° (W) 2,009 - -10.0°
Exits shadow 05:15:32 13° 263° (W) 1,832 8.8 -9.9°
Maximum altitude 05:19:38 63° 184° (S) 705 7.4 -9.3°
Drops below altitude 10° 05:24:12 10° 104° (ESE) 2,010 11.4 -8.6°
Sets 05:26:32 0° 101° (E) 2,921 13.0 -8.2°
